ONEWEB-0049 (45154 NORAD) Tracking and Keplerian Element Data

This shows tracking and keplerian element data for the satellite.

Feedback or suggestion? Click here.




ElementValue
Catalog45154
NameONEWEB-0049
Epoch Orbit3810
Epoch Day293.91673611
Epoch Year2020
RAAN87.3204
Inclination87.9038
Eccentricity0.0023359
Argument of Perigee146.0649
Mean Anonmoly195.7136
Mean Motion13.40784716
Decay Rate0.00014167
L11 45154U 20008Z 20293.91673611 .00014167 00000-0 25635-1 0 9990
L22 45154 87.9038 87.3204 0023359 146.0649 195.7136 13.40784716 38107

Live tracking and technical data element details for ONEWEB-0049 (NORAD 45154). ONEWEB-0049 can be tracked NOW for your location showing map with azimuth and elevation plus other details from your city location.

Track the satellite on the map from your city or location and see movement details for azimuth, elevation, latitude, longitude, range, height, and movement on the map or in text.







IsCatalogInMostPopularTable: catalog: 45154, numindb: 51
Update: records affected: 1



GetName: 45154 ONEWEB-0049

Hit Count: updated at: Tue, 20 Oct 2020 12:28:40 GMT